AirNav   Air Wisconsin pilot careers
 
 994 users online  

MO48 Red Oak Airport
Owensville, Missouri, USA

GOING TO OWENSVILLE?


FAA INFORMATION EFFECTIVE 26 APRIL 2018

Location

FAA Identifier: MO48
Lat/Long: 38-20-14.3100N / 091-25-16.9900W
38-20.238500N / 091-25.283167W
38.3373083 / -91.4213861
(estimated)
Elevation: 745 ft. / 227 m (estimated)
Time zone: UTC -5 (UTC -6 during Standard Time)
Zip code: 63091

Airport Operations

Airport use: Private use. Permission required prior to landing
Activation date: 08/2015
Control tower: no
ARTCC: KANSAS CITY CENTER
FSS: SAINT LOUIS FLIGHT SERVICE STATION
Attendance: UNATNDD
Segmented circle: no

Airport Communications

WX AWOS-3 at UUV (14 nm SE): 119.375 (573-860-2596)

Nearby radio navigation aids

VOR radial/distance  VOR name  Freq  Var
VIHr045/17.4VICHY VOR/DME117.7006E
FTZr220/30.1FORISTELL VORTAC110.8005E

 
NDB name  Hdg/Dist  Freq  Var  ID
SULLIVAN295/13.635602EUUV ..- ..- ...-

Airport Services

Runway Information

Runway 12/30

Dimensions: 1661 x 40 ft. / 506 x 12 m
Surface: turf/gravel
RUNWAY 12  RUNWAY 30
Latitude: 38-20.304333N38-20.172667N
Longitude: 091-25.435500W091-25.130833W
Elevation: 747.0 ft.740.0 ft.
Traffic pattern: leftleft

Airport Ownership and Management from official FAA records

Ownership: Privately-owned
Owner: PHIL HORSTMANN
PO BOX 1831
WILSON, WY 83014
Phone 314-713-4866
Manager: PHIL HORSTMANN
PO BOX 1831
WILSON, WY 83014
Phone 314-713-4866

Instrument Procedures

There are no published instrument procedures at MO48.

Some nearby airports with instrument procedures:

KUUV - Sullivan Regional Airport (14 nm SE)
KUBX - Cuba Municipal Airport (16 nm S)
KVIH - Rolla National Airport (21 nm SW)
KFYG - Washington Regional Airport (25 nm NE)
KJEF - Jefferson City Memorial Airport (38 nm NW)
 
Loc | Ops | Rwys | IFR | FBO | Links
Com | Nav | Svcs | Stats | Notes

AirNav Hotels Sweepstakes
 
Aerial photo
No photo
 
Airport distance calculator
Flying to Red Oak Airport? Find the distance to fly.

From to MO48

Sunrise and sunset
Times for 23-May-2018
 Local
(UTC-5)
 Zulu
(UTC)
Morning civil twilight05:1910:19
Sunrise05:4910:49
Sunset20:1501:15
Evening civil twilight20:4601:46

Current date and time
Zulu (UTC)  24-May-2018 01:30:45
Local (UTC-5)  23-May-2018 20:30:45
 
METAR
KVIH 
20nm SW 
240053Z AUTO 10006KT 10SM CLR 25/19 A3012 RMK AO2 SLP188 T02500189
KFYG 
25nm NE 
240055Z AUTO 00000KT 10SM CLR 24/20 A3009 RMK AO2
KJEF 
38nm NW 
240053Z 11007KT 10SM CLR 28/19 A3007 RMK AO2 SLP169 T02830189
TAF
KSUS 
41nm NE 
231725Z 2318/2418 VRB04KT P6SM FEW040 FEW250 FM240000 00000KT P6SM FEW250 FM241400 12005KT P6SM FEW250
KCOU 
47nm NW 
231725Z 2318/2418 13006KT P6SM SCT040 SCT250
NOTAMs
Click for the latest NOTAMs
NOTAMs are issued by the DoD/FAA and will open in a separate window not controlled by AirNav.

 

 
 

Would you like to see your business listed on this page?

 If your business provides an interesting product or service to pilots, flight crews, aircraft, or users of the Red Oak Airport, you should consider listing it here.  To start the listing process, click on the button below
 
Add a business
 

Other Pages about Red Oak Airport

Update a link
 
Copyright © AirNav, LLC. All rights reserved. Privacy Policy  Contact